Time,TemperatureF,DewpointF,PressureIn,WindDirection,WindDirectionDegrees,WindSpeedMPH,WindSpeedGustMPH,Humidity,HourlyPrecipIn,Conditions,Clouds,dailyrainin,SolarRadiationWatts/m^2,SoftwareType,DateUTC
2013-02-28 00:00:00,44.6,42.7,30.29,SE,146,1.0,1.0,93,0.00,,,0.00,0,Wunderground v.1.15,2013-02-28 08:00:00,
2013-02-28 00:05:00,44.6,42.7,30.28,SE,146,1.0,3.0,93,0.00,,,0.00,0,Wunderground v.1.15,2013-02-28 08:05:00,
2013-02-28 00:10:00,44.6,42.4,30.28,SE,145,0.0,2.0,92,0.00,,,0.00,0,Wunderground v.1.15,2013-02-28 08:10:00,
2013-02-28 00:15:00,44.6,42.4,30.28,SE,144,1.0,3.0,92,0.00,,,0.00,0,Wunderground v.1.15,2013-02-28 08:15:00,
2013-02-28 00:20:00,44.6,42.4,30.29,ESE,115,3.0,3.0,92,0.00,,,0.00,0,Wunderground v.1.15,2013-02-28 08:20:00,
2013-02-28 00:25:00,44.6,42.4,30.29,ESE,115,3.0,4.0,92,0.00,,,0.00,0,Wunderground v.1.15,2013-02-28 08:25:00,
2013-02-28 00:30:00,44.6,42.4,30.29,ESE,113,1.0,2.0,92,0.00,,,0.00,0,Wunderground v.1.15,2013-02-28 08:30:00,
2013-02-28 00:35:00,44.6,42.4,30.28,ESE,111,2.0,5.0,92,0.00,,,0.00,0,Wunderground v.1.15,2013-02-28 08:35:00,
2013-02-28 00:40:00,44.6,42.4,30.28,ESE,114,2.0,2.0,92,0.00,,,0.00,0,Wunderground v.1.15,2013-02-28 08:40:00,
2013-02-28 00:45:00,44.6,42.4,30.28,ESE,114,1.0,3.0,92,0.00,,,0.00,0,Wunderground v.1.15,2013-02-28 08:45:00,
2013-02-28 00:50:00,44.6,42.1,30.28,ESE,120,3.0,3.0,91,0.00,,,0.00,0,Wunderground v.1.15,2013-02-28 08:50:00,
2013-02-28 00:55:00,44.6,42.1,30.27,ESE,111,1.0,5.0,91,0.00,,,0.00,0,Wunderground v.1.15,2013-02-28 08:55:00,
2013-02-28 01:00:00,44.6,42.4,30.27,ESE,109,1.0,2.0,92,0.00,,,0.00,0,Wunderground v.1.15,2013-02-28 09:00:00,
2013-02-28 01:05:00,44.5,42.3,30.28,ESE,108,0.0,2.0,92,0.00,,,0.01,0,Wunderground v.1.15,2013-02-28 09:05:00,
2013-02-28 01:10:00,44.5,42.3,30.28,ESE,111,0.0,1.0,92,0.00,,,0.01,0,Wunderground v.1.15,2013-02-28 09:10:00,
2013-02-28 01:15:00,44.4,42.2,30.28,ESE,111,1.0,2.0,92,0.00,,,0.01,0,Wunderground v.1.15,2013-02-28 09:15:00,
2013-02-28 01:20:00,44.4,42.2,30.27,ESE,119,2.0,2.0,92,0.00,,,0.01,0,Wunderground v.1.15,2013-02-28 09:20:00,
2013-02-28 01:25:00,44.4,42.2,30.27,ESE,117,0.0,3.0,92,0.00,,,0.01,0,Wunderground v.1.15,2013-02-28 09:25:00,
2013-02-28 01:30:00,44.3,42.1,30.27,ESE,114,1.0,2.0,92,0.00,,,0.01,0,Wunderground v.1.15,2013-02-28 09:30:00,
2013-02-28 01:35:00,44.3,42.1,30.27,ESE,114,0.0,2.0,92,0.00,,,0.01,0,Wunderground v.1.15,2013-02-28 09:35:00,
2013-02-28 01:40:00,44.3,42.1,30.27,ESE,114,0.0,0.0,92,0.00,,,0.02,0,Wunderground v.1.15,2013-02-28 09:40:00,
2013-02-28 01:45:00,44.3,42.1,30.27,ESE,114,0.0,1.0,92,0.00,,,0.02,0,Wunderground v.1.15,2013-02-28 09:45:00,
2013-02-28 01:50:00,44.3,42.1,30.27,ESE,114,0.0,1.0,92,0.00,,,0.02,0,Wunderground v.1.15,2013-02-28 09:50:00,
2013-02-28 01:55:00,44.3,42.1,30.27,ESE,111,2.0,3.0,92,0.00,,,0.02,0,Wunderground v.1.15,2013-02-28 09:55:00,
2013-02-28 02:00:00,44.2,42.0,30.26,ESE,111,1.0,1.0,92,0.00,,,0.03,0,Wunderground v.1.15,2013-02-28 10:00:00,
2013-02-28 02:05:00,44.2,42.0,30.27,ESE,110,1.0,3.0,92,0.00,,,0.03,0,Wunderground v.1.15,2013-02-28 10:05:00,
2013-02-28 02:10:00,44.2,42.0,30.27,ESE,110,0.0,1.0,92,0.00,,,0.03,0,Wunderground v.1.15,2013-02-28 10:10:00,
2013-02-28 02:15:00,44.3,42.1,30.26,ESE,110,0.0,2.0,92,0.00,,,0.03,0,Wunderground v.1.15,2013-02-28 10:15:00,
2013-02-28 02:20:00,44.3,42.1,30.26,ESE,110,0.0,0.0,92,0.00,,,0.03,0,Wunderground v.1.15,2013-02-28 10:20:00,
2013-02-28 02:25:00,44.3,42.1,30.26,ESE,110,0.0,1.0,92,0.00,,,0.04,0,Wunderground v.1.15,2013-02-28 10:25:00,
2013-02-28 02:30:00,44.3,42.1,30.26,ESE,111,1.0,1.0,92,0.00,,,0.04,0,Wunderground v.1.15,2013-02-28 10:30:00,
2013-02-28 02:35:00,44.2,42.3,30.26,ESE,111,0.0,2.0,93,0.00,,,0.04,0,Wunderground v.1.15,2013-02-28 10:35:00,
2013-02-28 02:40:00,44.2,42.3,30.26,ESE,111,0.0,0.0,93,0.00,,,0.04,0,Wunderground v.1.15,2013-02-28 10:40:00,
2013-02-28 02:45:00,44.1,42.2,30.26,ESE,111,0.0,2.0,93,0.00,,,0.04,0,Wunderground v.1.15,2013-02-28 10:45:00,
2013-02-28 02:50:00,44.0,42.1,30.27,ESE,111,1.0,1.0,93,0.00,,,0.04,0,Wunderground v.1.15,2013-02-28 10:50:00,
2013-02-28 02:55:00,44.0,42.1,30.26,ESE,115,1.0,2.0,93,0.00,,,0.04,0,Wunderground v.1.15,2013-02-28 10:55:00,
2013-02-28 03:00:00,43.9,42.0,30.26,ESE,117,1.0,1.0,93,0.00,,,0.04,0,Wunderground v.1.15,2013-02-28 11:00:00,
2013-02-28 03:05:00,43.9,42.0,30.26,SW,225,2.0,3.0,93,0.00,,,0.04,0,Wunderground v.1.15,2013-02-28 11:05:00,
2013-02-28 03:10:00,43.9,42.0,30.26,SW,225,0.0,1.0,93,0.00,,,0.04,0,Wunderground v.1.15,2013-02-28 11:10:00,
2013-02-28 03:15:00,43.9,42.0,30.26,SW,223,0.0,2.0,93,0.00,,,0.05,0,Wunderground v.1.15,2013-02-28 11:15:00,
2013-02-28 03:20:00,43.8,41.9,30.26,SW,223,0.0,0.0,93,0.00,,,0.05,0,Wunderground v.1.15,2013-02-28 11:20:00,
2013-02-28 03:25:00,43.8,41.9,30.26,SW,223,0.0,2.0,93,0.00,,,0.05,0,Wunderground v.1.15,2013-02-28 11:25:00,
2013-02-28 03:30:00,43.8,41.9,30.26,SSW,194,2.0,3.0,93,0.00,,,0.05,0,Wunderground v.1.15,2013-02-28 11:30:00,
2013-02-28 03:35:00,43.8,41.9,30.26,South,186,1.0,3.0,93,0.00,,,0.05,0,Wunderground v.1.15,2013-02-28 11:35:00,
2013-02-28 03:40:00,43.8,41.9,30.25,South,186,3.0,3.0,93,0.00,,,0.05,0,Wunderground v.1.15,2013-02-28 11:40:00,
2013-02-28 03:45:00,43.8,41.9,30.25,SE,144,2.0,4.0,93,0.00,,,0.06,0,Wunderground v.1.15,2013-02-28 11:45:00,
2013-02-28 03:50:00,43.8,41.9,30.25,SE,143,1.0,2.0,93,0.00,,,0.06,0,Wunderground v.1.15,2013-02-28 11:50:00,
2013-02-28 03:55:00,43.8,41.9,30.25,SE,142,2.0,3.0,93,0.00,,,0.06,0,Wunderground v.1.15,2013-02-28 11:55:00,
2013-02-28 04:00:00,43.8,41.9,30.25,SE,142,1.0,2.0,93,0.00,,,0.06,0,Wunderground v.1.15,2013-02-28 12:00:00,
2013-02-28 04:05:00,43.8,41.9,30.25,SE,142,0.0,2.0,93,0.00,,,0.07,0,Wunderground v.1.15,2013-02-28 12:05:00,
2013-02-28 04:10:00,43.8,41.9,30.25,SE,142,0.0,0.0,93,0.00,,,0.07,0,Wunderground v.1.15,2013-02-28 12:10:00,
2013-02-28 04:15:00,43.8,41.9,30.25,SE,142,0.0,2.0,93,0.06,,,0.08,0,Wunderground v.1.15,2013-02-28 12:15:00,
2013-02-28 04:20:00,43.8,41.9,30.25,SE,142,0.0,1.0,93,0.06,,,0.08,0,Wunderground v.1.15,2013-02-28 12:20:00,
2013-02-28 04:25:00,43.8,41.9,30.24,SE,142,0.0,1.0,93,0.05,,,0.09,0,Wunderground v.1.15,2013-02-28 12:25:00,
2013-02-28 04:30:00,43.8,41.9,30.24,SE,142,0.0,0.0,93,0.05,,,0.09,0,Wunderground v.1.15,2013-02-28 12:30:00,
2013-02-28 04:35:00,43.8,41.9,30.25,SE,142,0.0,1.0,93,0.05,,,0.09,0,Wunderground v.1.15,2013-02-28 12:35:00,
2013-02-28 04:40:00,43.8,41.9,30.25,SE,142,0.0,0.0,93,0.04,,,0.10,0,Wunderground v.1.15,2013-02-28 12:40:00,
2013-02-28 04:45:00,43.8,41.9,30.25,SE,142,0.0,0.0,93,0.11,,,0.11,0,Wunderground v.1.15,2013-02-28 12:45:00,
2013-02-28 04:50:00,43.8,41.9,30.24,SE,142,0.0,0.0,93,0.08,,,0.11,0,Wunderground v.1.15,2013-02-28 12:50:00,
2013-02-28 04:55:00,43.8,41.9,30.25,SE,142,0.0,0.0,93,0.05,,,0.11,0,Wunderground v.1.15,2013-02-28 12:55:00,
2013-02-28 05:00:00,43.8,41.9,30.24,SE,142,0.0,0.0,93,0.00,,,0.11,0,Wunderground v.1.15,2013-02-28 13:00:00,
2013-02-28 05:05:00,43.8,41.9,30.25,SE,142,0.0,1.0,93,0.00,,,0.11,0,Wunderground v.1.15,2013-02-28 13:05:00,
2013-02-28 05:10:00,43.7,41.8,30.24,SE,142,0.0,0.0,93,0.00,,,0.12,0,Wunderground v.1.15,2013-02-28 13:10:00,
2013-02-28 05:15:00,43.8,41.9,30.24,SE,142,0.0,0.0,93,0.00,,,0.12,0,Wunderground v.1.15,2013-02-28 13:15:00,
2013-02-28 05:20:00,43.7,41.8,30.24,SE,142,0.0,0.0,93,0.00,,,0.12,0,Wunderground v.1.15,2013-02-28 13:20:00,
2013-02-28 05:25:00,43.7,42.1,30.24,SE,142,0.0,0.0,94,0.00,,,0.12,0,Wunderground v.1.15,2013-02-28 13:25:00,
2013-02-28 05:30:00,43.7,42.1,30.24,SE,142,0.0,0.0,94,0.00,,,0.12,0,Wunderground v.1.15,2013-02-28 13:30:00,
2013-02-28 05:35:00,43.7,42.1,30.24,SE,142,0.0,0.0,94,0.00,,,0.12,0,Wunderground v.1.15,2013-02-28 13:35:00,
2013-02-28 05:40:00,43.7,42.1,30.24,SE,142,0.0,0.0,94,0.00,,,0.12,0,Wunderground v.1.15,2013-02-28 13:40:00,
2013-02-28 05:45:00,43.6,42.0,30.23,SE,142,0.0,0.0,94,0.00,,,0.12,0,Wunderground v.1.15,2013-02-28 13:45:00,
2013-02-28 05:50:00,43.6,42.0,30.23,SE,142,0.0,0.0,94,0.00,,,0.12,0,Wunderground v.1.15,2013-02-28 13:50:00,
2013-02-28 05:55:00,43.5,41.9,30.24,SE,142,0.0,1.0,94,0.00,,,0.12,0,Wunderground v.1.15,2013-02-28 13:55:00,
2013-02-28 06:00:00,43.5,41.9,30.24,SE,142,0.0,1.0,94,0.00,,,0.12,0,Wunderground v.1.15,2013-02-28 14:00:00,
2013-02-28 06:05:00,43.5,41.9,30.23,SE,142,1.0,2.0,94,0.00,,,0.12,0,Wunderground v.1.15,2013-02-28 14:05:00,
2013-02-28 06:10:00,43.5,41.9,30.24,SE,142,0.0,0.0,94,0.00,,,0.12,0,Wunderground v.1.15,2013-02-28 14:10:00,
2013-02-28 06:15:00,43.5,41.9,30.24,SE,142,0.0,2.0,94,0.00,,,0.12,0,Wunderground v.1.15,2013-02-28 14:15:00,
2013-02-28 06:20:00,43.5,41.9,30.23,SE,142,0.0,0.0,94,0.00,,,0.12,0,Wunderground v.1.15,2013-02-28 14:20:00,
2013-02-28 06:25:00,43.5,41.9,30.23,SE,142,0.0,1.0,94,0.00,,,0.12,0,Wunderground v.1.15,2013-02-28 14:25:00,
2013-02-28 06:30:00,43.6,42.0,30.23,SE,142,0.0,0.0,94,0.00,,,0.12,0,Wunderground v.1.15,2013-02-28 14:30:00,
2013-02-28 06:35:00,43.6,42.0,30.23,SE,142,0.0,0.0,94,0.00,,,0.12,0,Wunderground v.1.15,2013-02-28 14:35:00,
2013-02-28 06:40:00,43.6,42.0,30.23,SE,142,0.0,1.0,94,0.00,,,0.12,0,Wunderground v.1.15,2013-02-28 14:40:00,
2013-02-28 06:45:00,43.7,42.1,30.23,SE,142,1.0,2.0,94,0.00,,,0.12,0,Wunderground v.1.15,2013-02-28 14:45:00,
2013-02-28 06:50:00,43.7,42.1,30.23,SE,142,0.0,1.0,94,0.00,,,0.12,0,Wunderground v.1.15,2013-02-28 14:50:00,
2013-02-28 06:55:00,43.7,42.1,30.22,SE,142,2.0,3.0,94,0.00,,,0.12,0,Wunderground v.1.15,2013-02-28 14:55:00,
2013-02-28 07:00:00,43.7,42.1,30.23,SE,141,0.0,1.0,94,0.00,,,0.12,0,Wunderground v.1.15,2013-02-28 15:00:00,
2013-02-28 07:05:00,43.7,42.1,30.22,SE,141,0.0,1.0,94,0.00,,,0.12,5,Wunderground v.1.15,2013-02-28 15:05:00,
2013-02-28 07:10:00,43.7,42.1,30.22,SE,141,0.0,0.0,94,0.00,,,0.12,7,Wunderground v.1.15,2013-02-28 15:10:00,
2013-02-28 07:15:00,43.8,42.2,30.21,SE,142,1.0,2.0,94,0.00,,,0.12,9,Wunderground v.1.15,2013-02-28 15:15:00,
2013-02-28 07:20:00,43.8,42.2,30.21,SE,140,2.0,4.0,94,0.00,,,0.12,12,Wunderground v.1.15,2013-02-28 15:20:00,
2013-02-28 07:25:00,43.8,42.2,30.21,SE,141,1.0,3.0,94,0.00,,,0.12,14,Wunderground v.1.15,2013-02-28 15:25:00,
2013-02-28 07:30:00,43.8,42.2,30.21,SE,141,0.0,3.0,94,0.00,,,0.12,16,Wunderground v.1.15,2013-02-28 15:30:00,
2013-02-28 07:35:00,43.8,42.2,30.21,SE,141,0.0,2.0,94,0.00,,,0.12,14,Wunderground v.1.15,2013-02-28 15:35:00,
2013-02-28 07:40:00,43.9,42.3,30.21,SE,141,1.0,2.0,94,0.00,,,0.12,16,Wunderground v.1.15,2013-02-28 15:40:00,
2013-02-28 07:45:00,43.9,42.3,30.21,SE,141,0.0,1.0,94,0.00,,,0.12,14,Wunderground v.1.15,2013-02-28 15:45:00,
2013-02-28 07:50:00,43.9,42.3,30.21,SE,146,1.0,2.0,94,0.00,,,0.12,12,Wunderground v.1.15,2013-02-28 15:50:00,
2013-02-28 07:55:00,43.9,42.3,30.21,SE,146,1.0,2.0,94,0.00,,,0.12,14,Wunderground v.1.15,2013-02-28 15:55:00,
2013-02-28 08:00:00,43.8,42.2,30.21,SE,146,0.0,2.0,94,0.00,,,0.12,18,Wunderground v.1.15,2013-02-28 16:00:00,
2013-02-28 08:05:00,43.8,42.2,30.21,SSE,148,1.0,1.0,94,0.00,,,0.13,14,Wunderground v.1.15,2013-02-28 16:05:00,
2013-02-28 08:10:00,43.9,42.3,30.21,SSE,148,0.0,2.0,94,0.00,,,0.13,12,Wunderground v.1.15,2013-02-28 16:10:00,
2013-02-28 08:15:00,43.9,42.3,30.21,SSE,148,1.0,2.0,94,0.00,,,0.13,16,Wunderground v.1.15,2013-02-28 16:15:00,
2013-02-28 08:20:00,43.9,42.3,30.21,SSE,150,0.0,2.0,94,0.00,,,0.13,19,Wunderground v.1.15,2013-02-28 16:20:00,
2013-02-28 08:25:00,44.0,42.4,30.21,SSE,150,0.0,0.0,94,0.00,,,0.13,19,Wunderground v.1.15,2013-02-28 16:25:00,
2013-02-28 08:30:00,44.0,42.4,30.21,SSE,150,0.0,0.0,94,0.00,,,0.13,23,Wunderground v.1.15,2013-02-28 16:30:00,
2013-02-28 08:35:00,44.0,42.4,30.21,SSE,150,0.0,0.0,94,0.00,,,0.14,23,Wunderground v.1.15,2013-02-28 16:35:00,
2013-02-28 08:40:00,44.1,42.5,30.22,SSE,150,0.0,1.0,94,0.00,,,0.14,23,Wunderground v.1.15,2013-02-28 16:40:00,
2013-02-28 08:45:00,44.1,42.5,30.21,SSE,150,0.0,2.0,94,0.00,,,0.14,28,Wunderground v.1.15,2013-02-28 16:45:00,
2013-02-28 08:50:00,44.2,42.6,30.21,SSE,150,0.0,2.0,94,0.00,,,0.14,33,Wunderground v.1.15,2013-02-28 16:50:00,
2013-02-28 08:55:00,44.3,42.7,30.22,SSE,150,0.0,2.0,94,0.00,,,0.14,35,Wunderground v.1.15,2013-02-28 16:55:00,
2013-02-28 09:00:00,44.3,42.7,30.22,SSE,150,1.0,3.0,94,0.00,,,0.15,35,Wunderground v.1.15,2013-02-28 17:00:00,
2013-02-28 09:05:00,44.4,42.8,30.22,SSE,150,0.0,2.0,94,0.00,,,0.15,42,Wunderground v.1.15,2013-02-28 17:05:00,
2013-02-28 09:10:00,44.6,43.0,30.21,SSE,150,1.0,1.0,94,0.00,,,0.15,49,Wunderground v.1.15,2013-02-28 17:10:00,
2013-02-28 09:15:00,44.6,43.0,30.21,SSE,157,1.0,3.0,94,0.00,,,0.15,40,Wunderground v.1.15,2013-02-28 17:15:00,
2013-02-28 09:20:00,44.6,43.0,30.21,SSE,157,0.0,1.0,94,0.00,,,0.15,42,Wunderground v.1.15,2013-02-28 17:20:00,
2013-02-28 09:25:00,44.6,43.0,30.21,South,179,0.0,3.0,94,0.00,,,0.16,47,Wunderground v.1.15,2013-02-28 17:25:00,
2013-02-28 09:30:00,44.7,43.1,30.21,South,189,2.0,2.0,94,0.00,,,0.16,53,Wunderground v.1.15,2013-02-28 17:30:00,
2013-02-28 09:35:00,44.8,43.2,30.21,SSW,197,1.0,2.0,94,0.00,,,0.16,53,Wunderground v.1.15,2013-02-28 17:35:00,
2013-02-28 09:40:00,45.0,43.4,30.21,SSW,197,0.0,1.0,94,0.00,,,0.16,56,Wunderground v.1.15,2013-02-28 17:40:00,
2013-02-28 09:45:00,45.1,43.5,30.21,SSW,196,2.0,2.0,94,0.00,,,0.16,62,Wunderground v.1.15,2013-02-28 17:45:00,
2013-02-28 09:50:00,45.0,43.4,30.21,South,189,2.0,4.0,94,0.00,,,0.16,56,Wunderground v.1.15,2013-02-28 17:50:00,
2013-02-28 09:55:00,45.0,43.4,30.22,South,183,0.0,3.0,94,0.00,,,0.16,56,Wunderground v.1.15,2013-02-28 17:55:00,
2013-02-28 10:00:00,45.1,43.8,30.22,South,183,0.0,3.0,95,0.00,,,0.16,47,Wunderground v.1.15,2013-02-28 18:00:00,
2013-02-28 10:05:00,45.1,43.5,30.22,South,183,1.0,2.0,94,0.00,,,0.16,46,Wunderground v.1.15,2013-02-28 18:05:00,
2013-02-28 10:10:00,45.2,43.9,30.22,South,183,0.0,2.0,95,0.00,,,0.16,40,Wunderground v.1.15,2013-02-28 18:10:00,
2013-02-28 10:15:00,45.4,43.8,30.22,South,183,1.0,1.0,94,0.00,,,0.16,35,Wunderground v.1.15,2013-02-28 18:15:00,
2013-02-28 10:20:00,45.5,44.2,30.22,SSW,197,0.0,0.0,95,0.00,,,0.16,37,Wunderground v.1.15,2013-02-28 18:20:00,
2013-02-28 10:25:00,45.6,44.0,30.22,SSW,197,0.0,2.0,94,0.00,,,0.16,40,Wunderground v.1.15,2013-02-28 18:25:00,
2013-02-28 10:30:00,45.7,44.1,30.22,SSW,197,1.0,1.0,94,0.00,,,0.16,44,Wunderground v.1.15,2013-02-28 18:30:00,
2013-02-28 10:35:00,45.6,44.0,30.22,SW,217,3.0,6.0,94,0.00,,,0.16,40,Wunderground v.1.15,2013-02-28 18:35:00,
2013-02-28 10:40:00,45.7,44.1,30.22,SW,217,0.0,1.0,94,0.00,,,0.16,39,Wunderground v.1.15,2013-02-28 18:40:00,
2013-02-28 10:45:00,45.9,44.3,30.22,SW,217,1.0,2.0,94,0.00,,,0.16,39,Wunderground v.1.15,2013-02-28 18:45:00,
2013-02-28 10:50:00,46.0,44.4,30.22,SW,218,2.0,2.0,94,0.00,,,0.16,37,Wunderground v.1.15,2013-02-28 18:50:00,
2013-02-28 10:55:00,46.2,44.6,30.22,WSW,249,2.0,6.0,94,0.00,,,0.16,33,Wunderground v.1.15,2013-02-28 18:55:00,
2013-02-28 11:00:00,46.3,44.7,30.23,SW,222,7.0,7.0,94,0.00,,,0.16,32,Wunderground v.1.15,2013-02-28 19:00:00,
2013-02-28 11:05:00,46.5,44.9,30.23,WSW,250,4.0,7.0,94,0.00,,,0.16,44,Wunderground v.1.15,2013-02-28 19:05:00,
2013-02-28 11:10:00,46.7,45.1,30.23,WSW,250,3.0,4.0,94,0.00,,,0.16,39,Wunderground v.1.15,2013-02-28 19:10:00,
2013-02-28 11:15:00,46.9,45.0,30.23,WSW,246,2.0,7.0,93,0.00,,,0.16,47,Wunderground v.1.15,2013-02-28 19:15:00,
2013-02-28 11:20:00,47.0,45.1,30.23,West,266,2.0,4.0,93,0.00,,,0.16,46,Wunderground v.1.15,2013-02-28 19:20:00,
2013-02-28 11:25:00,47.1,45.2,30.23,WSW,245,3.0,7.0,93,0.00,,,0.16,46,Wunderground v.1.15,2013-02-28 19:25:00,
2013-02-28 11:30:00,47.2,45.3,30.23,WSW,256,2.0,3.0,93,0.00,,,0.16,40,Wunderground v.1.15,2013-02-28 19:30:00,
2013-02-28 11:35:00,47.2,45.3,30.23,WSW,238,2.0,5.0,93,0.00,,,0.16,47,Wunderground v.1.15,2013-02-28 19:35:00,
2013-02-28 11:40:00,47.2,45.3,30.23,SSW,210,3.0,3.0,93,0.00,,,0.16,49,Wunderground v.1.15,2013-02-28 19:40:00,
2013-02-28 11:45:00,47.1,45.2,30.23,WSW,250,1.0,7.0,93,0.00,,,0.16,62,Wunderground v.1.15,2013-02-28 19:45:00,
2013-02-28 11:50:00,47.3,45.7,30.23,SSW,211,4.0,7.0,94,0.00,,,0.16,56,Wunderground v.1.15,2013-02-28 19:50:00,
2013-02-28 11:55:00,47.4,45.8,30.24,WSW,242,2.0,7.0,94,0.00,,,0.16,49,Wunderground v.1.15,2013-02-28 19:55:00,
2013-02-28 12:00:00,47.5,45.6,30.24,WSW,243,2.0,3.0,93,0.00,,,0.16,56,Wunderground v.1.15,2013-02-28 20:00:00,
2013-02-28 12:05:00,47.6,46.0,30.24,SW,236,1.0,3.0,94,0.00,,,0.16,51,Wunderground v.1.15,2013-02-28 20:05:00,
2013-02-28 12:10:00,47.6,45.7,30.24,SW,216,4.0,4.0,93,0.00,,,0.16,49,Wunderground v.1.15,2013-02-28 20:10:00,
2013-02-28 12:15:00,47.7,45.8,30.23,WSW,238,4.0,10.0,93,0.00,,,0.16,79,Wunderground v.1.15,2013-02-28 20:15:00,
2013-02-28 12:20:00,47.7,45.8,30.23,SW,216,7.0,7.0,93,0.00,,,0.16,62,Wunderground v.1.15,2013-02-28 20:20:00,
2013-02-28 12:25:00,47.7,45.8,30.23,SW,225,1.0,7.0,93,0.00,,,0.16,60,Wunderground v.1.15,2013-02-28 20:25:00,
2013-02-28 12:30:00,47.7,45.8,30.23,WSW,253,5.0,6.0,93,0.00,,,0.16,47,Wunderground v.1.15,2013-02-28 20:30:00,
2013-02-28 12:35:00,47.8,45.9,30.24,WSW,243,8.0,9.0,93,0.00,,,0.16,46,Wunderground v.1.15,2013-02-28 20:35:00,
2013-02-28 12:40:00,47.8,45.9,30.23,WSW,247,0.0,5.0,93,0.00,,,0.16,37,Wunderground v.1.15,2013-02-28 20:40:00,
2013-02-28 12:45:00,47.8,45.9,30.23,West,281,5.0,7.0,93,0.00,,,0.16,44,Wunderground v.1.15,2013-02-28 20:45:00,
2013-02-28 12:50:00,47.9,46.0,30.23,WSW,245,5.0,5.0,93,0.00,,,0.16,72,Wunderground v.1.15,2013-02-28 20:50:00,
2013-02-28 12:55:00,48.1,46.2,30.23,WSW,257,2.0,8.0,93,0.00,,,0.16,76,Wunderground v.1.15,2013-02-28 20:55:00,
2013-02-28 13:00:00,48.4,46.5,30.23,WSW,242,4.0,5.0,93,0.00,,,0.16,65,Wunderground v.1.15,2013-02-28 21:00:00,
2013-02-28 13:05:00,48.6,46.7,30.23,West,263,6.0,9.0,93,0.00,,,0.16,98,Wunderground v.1.15,2013-02-28 21:05:00,
2013-02-28 13:10:00,49.1,47.2,30.23,WSW,249,5.0,5.0,93,0.00,,,0.16,141,Wunderground v.1.15,2013-02-28 21:10:00,
2013-02-28 13:15:00,49.5,47.3,30.22,WSW,238,2.0,14.0,92,0.00,,,0.16,156,Wunderground v.1.15,2013-02-28 21:15:00,
2013-02-28 13:20:00,49.5,47.3,30.23,SW,220,1.0,14.0,92,0.00,,,0.16,91,Wunderground v.1.15,2013-02-28 21:20:00,
2013-02-28 13:25:00,49.4,47.2,30.23,SSE,159,4.0,6.0,92,0.00,,,0.16,93,Wunderground v.1.15,2013-02-28 21:25:00,
2013-02-28 13:30:00,49.1,46.9,30.23,SW,215,2.0,3.0,92,0.00,,,0.16,98,Wunderground v.1.15,2013-02-28 21:30:00,
2013-02-28 13:35:00,49.2,47.0,30.23,South,177,4.0,7.0,92,0.00,,,0.16,91,Wunderground v.1.15,2013-02-28 21:35:00,
2013-02-28 13:40:00,49.1,46.9,30.23,South,173,2.0,7.0,92,0.00,,,0.16,83,Wunderground v.1.15,2013-02-28 21:40:00,
2013-02-28 13:45:00,49.2,47.3,30.24,SSE,161,3.0,7.0,93,0.00,,,0.16,91,Wunderground v.1.15,2013-02-28 21:45:00,
2013-02-28 13:50:00,49.0,46.8,30.24,SSE,155,4.0,7.0,92,0.00,,,0.16,83,Wunderground v.1.15,2013-02-28 21:50:00,
2013-02-28 13:55:00,49.0,46.8,30.24,South,184,2.0,8.0,92,0.00,,,0.16,53,Wunderground v.1.15,2013-02-28 21:55:00,
2013-02-28 14:00:00,49.0,46.8,30.24,South,174,3.0,8.0,92,0.00,,,0.16,44,Wunderground v.1.15,2013-02-28 22:00:00,
2013-02-28 14:05:00,48.9,46.7,30.25,South,173,4.0,6.0,92,0.00,,,0.16,35,Wunderground v.1.15,2013-02-28 22:05:00,
2013-02-28 14:10:00,48.9,47.0,30.25,SSE,163,3.0,6.0,93,0.00,,,0.16,28,Wunderground v.1.15,2013-02-28 22:10:00,
2013-02-28 14:15:00,48.9,47.0,30.25,South,174,5.0,5.0,93,0.00,,,0.16,32,Wunderground v.1.15,2013-02-28 22:15:00,
2013-02-28 14:20:00,48.9,47.0,30.25,SSW,197,5.0,6.0,93,0.00,,,0.16,28,Wunderground v.1.15,2013-02-28 22:20:00,
2013-02-28 14:25:00,49.0,47.1,30.25,South,183,3.0,7.0,93,0.00,,,0.16,42,Wunderground v.1.15,2013-02-28 22:25:00,
2013-02-28 14:30:00,49.0,47.1,30.25,SSE,160,3.0,8.0,93,0.00,,,0.16,35,Wunderground v.1.15,2013-02-28 22:30:00,
2013-02-28 14:35:00,49.1,47.2,30.26,SSE,162,3.0,7.0,93,0.00,,,0.16,26,Wunderground v.1.15,2013-02-28 22:35:00,
2013-02-28 14:40:00,49.1,47.2,30.26,SSE,165,2.0,7.0,93,0.00,,,0.16,30,Wunderground v.1.15,2013-02-28 22:40:00,
2013-02-28 14:45:00,49.2,47.3,30.26,South,170,3.0,6.0,93,0.00,,,0.16,40,Wunderground v.1.15,2013-02-28 22:45:00,
2013-02-28 14:50:00,49.2,47.3,30.26,SSE,158,4.0,7.0,93,0.00,,,0.16,42,Wunderground v.1.15,2013-02-28 22:50:00,
2013-02-28 14:55:00,49.2,47.3,30.26,South,178,2.0,5.0,93,0.00,,,0.16,35,Wunderground v.1.15,2013-02-28 22:55:00,
2013-02-28 15:00:00,49.3,47.4,30.26,SSW,202,5.0,6.0,93,0.00,,,0.16,32,Wunderground v.1.15,2013-02-28 23:00:00,
2013-02-28 15:05:00,49.3,47.4,30.26,South,173,2.0,5.0,93,0.00,,,0.16,28,Wunderground v.1.15,2013-02-28 23:05:00,
2013-02-28 15:10:00,49.4,47.5,30.27,SSE,153,4.0,6.0,93,0.00,,,0.16,30,Wunderground v.1.15,2013-02-28 23:10:00,
2013-02-28 15:15:00,49.5,47.6,30.27,South,180,4.0,7.0,93,0.00,,,0.16,35,Wunderground v.1.15,2013-02-28 23:15:00,
2013-02-28 15:20:00,49.6,47.9,30.27,SSE,158,2.0,7.0,94,0.00,,,0.16,44,Wunderground v.1.15,2013-02-28 23:20:00,
2013-02-28 15:25:00,49.7,48.0,30.27,South,176,2.0,6.0,94,0.00,,,0.16,53,Wunderground v.1.15,2013-02-28 23:25:00,
2013-02-28 15:30:00,49.8,48.1,30.27,South,177,3.0,6.0,94,0.00,,,0.16,54,Wunderground v.1.15,2013-02-28 23:30:00,
2013-02-28 15:35:00,49.9,48.2,30.27,South,179,2.0,5.0,94,0.00,,,0.16,49,Wunderground v.1.15,2013-02-28 23:35:00,
2013-02-28 15:40:00,50.1,48.4,30.26,West,274,9.0,9.0,94,0.00,,,0.16,58,Wunderground v.1.15,2013-02-28 23:40:00,
2013-02-28 15:45:00,50.3,48.6,30.27,SSW,199,0.0,9.0,94,0.00,,,0.16,54,Wunderground v.1.15,2013-02-28 23:45:00,
2013-02-28 15:50:00,50.7,49.0,30.27,West,265,5.0,10.0,94,0.00,,,0.16,95,Wunderground v.1.15,2013-02-28 23:50:00,
2013-02-28 15:55:00,51.0,49.0,30.27,West,265,3.0,7.0,93,0.00,,,0.16,69,Wunderground v.1.15,2013-02-28 23:55:00,
2013-02-28 16:00:00,51.0,49.0,30.27,WSW,255,3.0,7.0,93,0.00,,,0.16,56,Wunderground v.1.15,2013-03-01 00:00:00,
2013-02-28 16:05:00,50.9,48.9,30.27,West,261,6.0,7.0,93,0.00,,,0.16,51,Wunderground v.1.15,2013-03-01 00:05:00,
2013-02-28 16:10:00,51.2,49.2,30.27,WSW,244,3.0,7.0,93,0.00,,,0.16,46,Wunderground v.1.15,2013-03-01 00:10:00,
2013-02-28 16:15:00,51.2,49.2,30.27,West,261,7.0,11.0,93,0.00,,,0.16,58,Wunderground v.1.15,2013-03-01 00:15:00,
2013-02-28 16:20:00,51.7,49.7,30.27,WSW,238,9.0,14.0,93,0.00,,,0.16,46,Wunderground v.1.15,2013-03-01 00:20:00,
2013-02-28 16:25:00,52.1,50.1,30.27,West,263,7.0,14.0,93,0.00,,,0.17,49,Wunderground v.1.15,2013-03-01 00:25:00,
2013-02-28 16:30:00,52.3,50.0,30.26,WSW,252,6.0,17.0,92,0.00,,,0.17,67,Wunderground v.1.15,2013-03-01 00:30:00,
2013-02-28 16:35:00,52.4,49.8,30.26,West,277,6.0,13.0,91,0.00,,,0.17,39,Wunderground v.1.15,2013-03-01 00:35:00,
2013-02-28 16:40:00,52.5,49.9,30.26,West,263,5.0,19.0,91,0.00,,,0.17,35,Wunderground v.1.15,2013-03-01 00:40:00,
2013-02-28 16:45:00,52.6,50.0,30.26,West,260,7.0,14.0,91,0.00,,,0.17,32,Wunderground v.1.15,2013-03-01 00:45:00,
2013-02-28 16:50:00,52.5,49.9,30.26,WSW,252,13.0,18.0,91,0.00,,,0.17,30,Wunderground v.1.15,2013-03-01 00:50:00,
2013-02-28 16:55:00,52.5,49.9,30.26,SSW,207,8.0,23.0,91,0.00,,,0.17,25,Wunderground v.1.15,2013-03-01 00:55:00,
2013-02-28 17:00:00,52.5,49.9,30.26,WNW,284,9.0,23.0,91,0.00,,,0.17,25,Wunderground v.1.15,2013-03-01 01:00:00,
2013-02-28 17:05:00,52.5,49.9,30.26,WNW,286,13.0,16.0,91,0.00,,,0.17,19,Wunderground v.1.15,2013-03-01 01:05:00,
2013-02-28 17:10:00,52.6,50.0,30.26,West,277,10.0,21.0,91,0.00,,,0.17,21,Wunderground v.1.15,2013-03-01 01:10:00,
2013-02-28 17:15:00,52.6,50.0,30.26,West,278,7.0,15.0,91,0.00,,,0.17,18,Wunderground v.1.15,2013-03-01 01:15:00,
2013-02-28 17:20:00,52.5,49.9,30.26,West,261,10.0,19.0,91,0.00,,,0.17,19,Wunderground v.1.15,2013-03-01 01:20:00,
2013-02-28 17:25:00,52.5,50.2,30.26,West,264,12.0,19.0,92,0.00,,,0.17,18,Wunderground v.1.15,2013-03-01 01:25:00,
2013-02-28 17:30:00,52.5,50.2,30.25,West,261,14.0,19.0,92,0.00,,,0.17,14,Wunderground v.1.15,2013-03-01 01:30:00,
2013-02-28 17:35:00,52.5,49.9,30.25,West,269,8.0,20.0,91,0.00,,,0.17,9,Wunderground v.1.15,2013-03-01 01:35:00,
2013-02-28 17:40:00,52.6,50.3,30.25,West,266,8.0,23.0,92,0.00,,,0.17,7,Wunderground v.1.15,2013-03-01 01:40:00,
2013-02-28 17:45:00,52.6,50.0,30.25,West,264,10.0,19.0,91,0.00,,,0.17,5,Wunderground v.1.15,2013-03-01 01:45:00,
2013-02-28 17:50:00,52.7,50.4,30.25,WSW,254,9.0,22.0,92,0.00,,,0.17,0,Wunderground v.1.15,2013-03-01 01:50:00,
2013-02-28 17:55:00,52.7,50.1,30.26,West,278,6.0,18.0,91,0.00,,,0.17,0,Wunderground v.1.15,2013-03-01 01:55:00,
2013-02-28 18:00:00,52.8,50.2,30.26,WSW,237,10.0,10.0,91,0.00,,,0.17,0,Wunderground v.1.15,2013-03-01 02:00:00,
2013-02-28 18:05:00,52.8,49.9,30.27,WSW,250,7.0,21.0,90,0.00,,,0.17,0,Wunderground v.1.15,2013-03-01 02:05:00,
2013-02-28 18:10:00,52.7,50.1,30.27,West,278,15.0,15.0,91,0.00,,,0.17,0,Wunderground v.1.15,2013-03-01 02:10:00,
2013-02-28 18:15:00,52.7,49.8,30.26,West,269,9.0,15.0,90,0.00,,,0.17,0,Wunderground v.1.15,2013-03-01 02:15:00,
2013-02-28 18:20:00,52.5,49.9,30.26,West,267,13.0,17.0,91,0.00,,,0.17,0,Wunderground v.1.15,2013-03-01 02:20:00,
2013-02-28 18:25:00,52.6,50.0,30.26,WSW,253,14.0,19.0,91,0.00,,,0.17,0,Wunderground v.1.15,2013-03-01 02:25:00,
2013-02-28 18:30:00,52.5,49.9,30.27,West,266,11.0,20.0,91,0.00,,,0.17,0,Wunderground v.1.15,2013-03-01 02:30:00,
2013-02-28 18:35:00,52.4,49.8,30.27,West,280,4.0,13.0,91,0.00,,,0.17,0,Wunderground v.1.15,2013-03-01 02:35:00,
2013-02-28 18:40:00,52.3,49.8,30.27,West,275,9.0,17.0,91,0.00,,,0.17,0,Wunderground v.1.15,2013-03-01 02:40:00,
2013-02-28 18:45:00,52.4,49.8,30.28,West,271,8.0,14.0,91,0.00,,,0.17,0,Wunderground v.1.15,2013-03-01 02:45:00,
2013-02-28 18:50:00,52.5,49.9,30.27,West,259,9.0,14.0,91,0.00,,,0.17,0,Wunderground v.1.15,2013-03-01 02:50:00,
2013-02-28 18:55:00,52.4,49.8,30.27,WSW,254,9.0,15.0,91,0.00,,,0.17,0,Wunderground v.1.15,2013-03-01 02:55:00,
2013-02-28 19:00:00,52.4,50.1,30.27,West,260,6.0,15.0,92,0.00,,,0.17,0,Wunderground v.1.15,2013-03-01 03:00:00,
2013-02-28 19:05:00,52.4,50.1,30.28,West,266,9.0,12.0,92,0.00,,,0.17,0,Wunderground v.1.15,2013-03-01 03:05:00,
2013-02-28 19:10:00,52.3,50.0,30.28,West,279,7.0,14.0,92,0.00,,,0.17,0,Wunderground v.1.15,2013-03-01 03:10:00,
2013-02-28 19:15:00,52.4,50.1,30.28,West,269,7.0,14.0,92,0.00,,,0.17,0,Wunderground v.1.15,2013-03-01 03:15:00,
2013-02-28 19:20:00,52.4,50.1,30.29,SW,234,6.0,15.0,92,0.00,,,0.17,0,Wunderground v.1.15,2013-03-01 03:20:00,
2013-02-28 19:25:00,52.4,50.1,30.29,West,265,8.0,17.0,92,0.00,,,0.17,0,Wunderground v.1.15,2013-03-01 03:25:00,
2013-02-28 19:30:00,52.3,50.0,30.29,WSW,238,5.0,17.0,92,0.00,,,0.17,0,Wunderground v.1.15,2013-03-01 03:30:00,
2013-02-28 19:35:00,52.3,50.0,30.29,SW,218,10.0,18.0,92,0.00,,,0.17,0,Wunderground v.1.15,2013-03-01 03:35:00,
2013-02-28 19:40:00,52.4,50.1,30.30,West,267,12.0,19.0,92,0.00,,,0.17,0,Wunderground v.1.15,2013-03-01 03:40:00,
2013-02-28 19:45:00,52.4,49.8,30.30,West,273,9.0,17.0,91,0.00,,,0.17,0,Wunderground v.1.15,2013-03-01 03:45:00,
2013-02-28 19:50:00,52.5,49.9,30.29,West,263,12.0,17.0,91,0.00,,,0.17,0,Wunderground v.1.15,2013-03-01 03:50:00,
2013-02-28 19:55:00,52.5,49.9,30.29,WSW,252,6.0,14.0,91,0.00,,,0.17,0,Wunderground v.1.15,2013-03-01 03:55:00,
2013-02-28 20:00:00,52.5,49.9,30.29,WSW,254,11.0,16.0,91,0.00,,,0.17,0,Wunderground v.1.15,2013-03-01 04:00:00,
2013-02-28 20:05:00,52.5,49.9,30.29,West,265,6.0,15.0,91,0.00,,,0.17,0,Wunderground v.1.15,2013-03-01 04:05:00,
2013-02-28 20:10:00,52.4,49.6,30.29,WNW,293,12.0,15.0,90,0.00,,,0.17,0,Wunderground v.1.15,2013-03-01 04:10:00,
2013-02-28 20:15:00,52.4,49.8,30.29,SW,226,11.0,16.0,91,0.00,,,0.17,0,Wunderground v.1.15,2013-03-01 04:15:00,
2013-02-28 20:20:00,52.4,49.8,30.29,WSW,246,10.0,16.0,91,0.00,,,0.17,0,Wunderground v.1.15,2013-03-01 04:20:00,
2013-02-28 20:25:00,52.5,49.9,30.29,WSW,252,9.0,14.0,91,0.00,,,0.17,0,Wunderground v.1.15,2013-03-01 04:25:00,
2013-02-28 20:30:00,52.5,49.7,30.30,SW,223,8.0,14.0,90,0.00,,,0.17,0,Wunderground v.1.15,2013-03-01 04:30:00,
2013-02-28 20:35:00,52.4,49.8,30.30,West,261,7.0,16.0,91,0.00,,,0.17,0,Wunderground v.1.15,2013-03-01 04:35:00,
2013-02-28 20:40:00,52.5,49.9,30.30,West,279,11.0,16.0,91,0.00,,,0.17,0,Wunderground v.1.15,2013-03-01 04:40:00,
2013-02-28 20:45:00,52.6,50.0,30.30,SW,236,7.0,15.0,91,0.00,,,0.17,0,Wunderground v.1.15,2013-03-01 04:45:00,
2013-02-28 20:50:00,52.4,49.8,30.30,WSW,246,7.0,15.0,91,0.00,,,0.17,0,Wunderground v.1.15,2013-03-01 04:50:00,
2013-02-28 20:55:00,52.4,49.8,30.31,WNW,289,3.0,16.0,91,0.00,,,0.17,0,Wunderground v.1.15,2013-03-01 04:55:00,
2013-02-28 21:00:00,52.4,49.8,30.31,WSW,251,12.0,12.0,91,0.00,,,0.17,0,Wunderground v.1.15,2013-03-01 05:00:00,
2013-02-28 21:05:00,52.3,50.0,30.31,WSW,249,8.0,16.0,92,0.00,,,0.17,0,Wunderground v.1.15,2013-03-01 05:05:00,
2013-02-28 21:06:00,52.2,49.9,30.31,WSW,246,8.0,16.0,92,0.00,,,0.17,0,Wunderground v.1.15,2013-03-01 05:06:00,
2013-02-28 21:11:00,52.1,50.1,30.31,West,273,6.0,11.0,93,0.00,,,0.17,0,Wunderground v.1.15,2013-03-01 05:11:00,
2013-02-28 21:16:00,51.9,49.9,30.31,West,272,8.0,14.0,93,0.00,,,0.17,0,Wunderground v.1.15,2013-03-01 05:16:00,
2013-02-28 21:21:00,51.8,49.8,30.32,NW,304,6.0,9.0,93,0.00,,,0.17,0,Wunderground v.1.15,2013-03-01 05:21:00,
2013-02-28 21:26:00,51.7,50.0,30.32,West,265,10.0,11.0,94,0.00,,,0.17,0,Wunderground v.1.15,2013-03-01 05:26:00,
2013-02-28 21:31:00,51.6,49.9,30.32,West,273,9.0,12.0,94,0.00,,,0.17,0,Wunderground v.1.15,2013-03-01 05:31:00,
2013-02-28 21:36:00,51.7,49.7,30.32,West,265,4.0,14.0,93,0.00,,,0.17,0,Wunderground v.1.15,2013-03-01 05:36:00,
2013-02-28 21:41:00,51.8,49.8,30.33,West,274,3.0,8.0,93,0.00,,,0.17,0,Wunderground v.1.15,2013-03-01 05:41:00,
2013-02-28 21:46:00,51.8,49.8,30.33,West,276,7.0,11.0,93,0.00,,,0.17,0,Wunderground v.1.15,2013-03-01 05:46:00,
2013-02-28 21:51:00,51.8,49.8,30.33,West,281,5.0,10.0,93,0.00,,,0.17,0,Wunderground v.1.15,2013-03-01 05:51:00,
2013-02-28 21:56:00,51.7,50.0,30.33,WNW,302,5.0,13.0,94,0.00,,,0.17,0,Wunderground v.1.15,2013-03-01 05:56:00,
2013-02-28 22:01:00,51.5,49.8,30.33,West,270,8.0,9.0,94,0.00,,,0.17,0,Wunderground v.1.15,2013-03-01 06:01:00,
2013-02-28 22:06:00,51.4,49.7,30.33,West,281,3.0,10.0,94,0.00,,,0.17,0,Wunderground v.1.15,2013-03-01 06:06:00,
2013-02-28 22:11:00,51.3,49.6,30.33,West,277,4.0,6.0,94,0.00,,,0.17,0,Wunderground v.1.15,2013-03-01 06:11:00,
2013-02-28 22:16:00,51.3,49.6,30.33,West,275,3.0,8.0,94,0.00,,,0.17,0,Wunderground v.1.15,2013-03-01 06:16:00,
2013-02-28 22:21:00,51.3,49.9,30.33,West,269,3.0,9.0,95,0.00,,,0.17,0,Wunderground v.1.15,2013-03-01 06:21:00,
2013-02-28 22:26:00,51.3,49.9,30.33,West,269,7.0,12.0,95,0.00,,,0.18,0,Wunderground v.1.15,2013-03-01 06:26:00,
2013-02-28 22:31:00,51.2,49.8,30.32,WSW,247,9.0,10.0,95,0.00,,,0.18,0,Wunderground v.1.15,2013-03-01 06:31:00,
2013-02-28 22:36:00,51.1,49.4,30.33,West,281,9.0,10.0,94,0.00,,,0.18,0,Wunderground v.1.15,2013-03-01 06:36:00,
2013-02-28 22:41:00,51.1,49.7,30.33,SW,226,7.0,8.0,95,0.00,,,0.18,0,Wunderground v.1.15,2013-03-01 06:41:00,
2013-02-28 22:46:00,51.1,49.4,30.33,WSW,239,5.0,13.0,94,0.00,,,0.18,0,Wunderground v.1.15,2013-03-01 06:46:00,
2013-02-28 22:51:00,51.1,49.7,30.34,WNW,291,3.0,7.0,95,0.00,,,0.18,0,Wunderground v.1.15,2013-03-01 06:51:00,
2013-02-28 22:56:00,51.2,49.8,30.34,WSW,253,5.0,8.0,95,0.00,,,0.18,0,Wunderground v.1.15,2013-03-01 06:56:00,
2013-02-28 23:01:00,51.3,49.9,30.34,West,280,3.0,8.0,95,0.00,,,0.18,0,Wunderground v.1.15,2013-03-01 07:01:00,
2013-02-28 23:06:00,51.3,49.9,30.33,SW,217,4.0,9.0,95,0.00,,,0.18,0,Wunderground v.1.15,2013-03-01 07:06:00,
2013-02-28 23:11:00,51.3,49.9,30.33,WSW,240,3.0,6.0,95,0.00,,,0.18,0,Wunderground v.1.15,2013-03-01 07:11:00,
2013-02-28 23:16:00,51.3,49.9,30.32,West,260,3.0,9.0,95,0.00,,,0.18,0,Wunderground v.1.15,2013-03-01 07:16:00,
2013-02-28 23:21:00,51.3,49.6,30.33,West,259,4.0,10.0,94,0.00,,,0.18,0,Wunderground v.1.15,2013-03-01 07:21:00,
2013-02-28 23:26:00,51.4,49.7,30.33,West,277,4.0,10.0,94,0.00,,,0.18,0,Wunderground v.1.15,2013-03-01 07:26:00,
2013-02-28 23:31:00,51.5,49.8,30.33,WNW,282,7.0,8.0,94,0.00,,,0.18,0,Wunderground v.1.15,2013-03-01 07:31:00,
2013-02-28 23:36:00,51.7,50.0,30.33,WSW,254,6.0,11.0,94,0.00,,,0.18,0,Wunderground v.1.15,2013-03-01 07:36:00,
2013-02-28 23:41:00,51.7,50.0,30.33,West,271,4.0,5.0,94,0.00,,,0.18,0,Wunderground v.1.15,2013-03-01 07:41:00,
2013-02-28 23:46:00,51.7,50.0,30.33,West,268,2.0,7.0,94,0.00,,,0.18,0,Wunderground v.1.15,2013-03-01 07:46:00,
2013-02-28 23:51:00,51.7,50.0,30.33,WNW,297,1.0,4.0,94,0.00,,,0.18,0,Wunderground v.1.15,2013-03-01 07:51:00,
2013-02-28 23:56:00,51.7,50.0,30.33,WNW,303,1.0,5.0,94,0.00,,,0.00,0,Wunderground v.1.15,2013-03-01 07:56:00,